Roros Lufthavn, Norway

11:43 AM CET on December 16, 2019 (GMT +0100)
Roros

Weather History for ENRO - October, 2019

Change the Weather History Date:

Wednesday, October 2, 2019

  Actual Average Record
Temperature  
Mean Temperature 38 °F -  
Max Temperature 41 °F 47 °F 140 °F (1996)
Min Temperature 35 °F 35 °F 15 °F (1998)
Degree Days  
Heating Degree Days 27    
Moisture  
Dew Point 37 °F    
Average Humidity 94    
Maximum Humidity 100    
Minimum Humidity 81    
Precipitation  
Precipitation 0.00 in - - ()
Sea Level Pressure  
Sea Level Pressure 29.65 in    
Wind  
Wind Speed 8 mph ()    
Max Wind Speed 17 mph    
Max Gust Speed -    
Visibility 6.2 miles    
Events Rain    
Averages and records for this station are not official NWS values.
T = Trace of Precipitation, MM = Missing Value Source: Averaged Metar Reports

Daily Weather History Graph

Daily Weather History Graph

Search for Another Location

Airport or City:

Astronomy

Oct. 02, 2019 Rise Set
Actual Time 7:23 AM CEST 6:43 PM CEST
Civil Twilight 6:38 AM CEST 7:27 PM CEST
Nautical Twilight 5:45 AM CEST 8:20 PM CEST
Astronomical Twilight 4:48 AM CEST 9:16 PM CEST
Moon 12:44 PM CEST (10/2) 8:05 PM CEST (10/2)
Length of Visible Light 12h 49m
Length of Day
11h 19m
Waxing Crescent, 18% of the Moon is Illuminated
Oct 2
Waxing Crescent
Oct 5
First Quarter
Oct 13
Full
Oct 21
Last Quarter
Oct 28
New

Hourly Weather History & Observations

Time (CEST) Temp. Windchill Dew Point Humidity Pressure Visibility Wind Dir Wind Speed Gust Speed Precip Events Conditions
12:20 AM 35.6 °F 25.5 °F 35.6 °F 100% 29.36 in 6.2 mi NNW 17.3 mph - N/A   Overcast
12:50 AM 35.6 °F 26.6 °F 35.6 °F 100% 29.36 in 6.2 mi NNW 13.8 mph - N/A   Overcast
1:20 AM 35.6 °F 29.2 °F 35.6 °F 100% 29.39 in 6.2 mi North 8.1 mph - N/A   Overcast
1:50 AM 37.4 °F 29.8 °F 35.6 °F 93% 29.39 in 6.2 mi NNW 11.5 mph - N/A   Overcast
3:20 AM 37.4 °F 34.9 °F 37.4 °F 100% 29.42 in 6.2 mi North 3.5 mph - N/A   Overcast
3:50 AM 37.4 °F 30.3 °F 37.4 °F 100% 29.44 in 6.2 mi North 10.4 mph - N/A   Overcast
4:20 AM 37.4 °F 32.1 °F 37.4 °F 100% 29.44 in 6.2 mi NNW 6.9 mph - N/A   Overcast
4:50 AM 37.4 °F 29.8 °F 37.4 °F 100% 29.47 in 6.2 mi NNW 11.5 mph - N/A   Overcast
5:20 AM 37.4 °F 29.3 °F 37.4 °F 100% 29.47 in 6.2 mi North 12.7 mph - N/A   Overcast
5:50 AM 37.4 °F 30.3 °F 37.4 °F 100% 29.50 in 6.2 mi NNW 10.4 mph - N/A   Overcast
6:20 AM 37.4 °F 31.4 °F 37.4 °F 100% 29.50 in 6.2 mi NNW 8.1 mph - N/A   Mostly Cloudy
6:50 AM 37.4 °F 32.8 °F 37.4 °F 100% 29.53 in 6.2 mi North 5.8 mph - N/A   Mostly Cloudy
7:50 AM 37.4 °F 32.1 °F 37.4 °F 100% 29.56 in 6.2 mi North 6.9 mph - N/A   Overcast
8:50 AM 37.4 °F 32.1 °F 37.4 °F 100% 29.56 in 6.2 mi North 6.9 mph - N/A   Mostly Cloudy
9:20 AM 39.2 °F 32.0 °F 35.6 °F 87% 29.59 in 6.2 mi NNW 11.5 mph - N/A   Mostly Cloudy
9:50 AM 39.2 °F 32.0 °F 37.4 °F 93% 29.59 in 6.2 mi NNW 11.5 mph - N/A   Mostly Cloudy
10:20 AM 39.2 °F 31.6 °F 37.4 °F 93% 29.62 in 6.2 mi NNW 12.7 mph - N/A   Mostly Cloudy
10:50 AM 39.2 °F 33.0 °F 37.4 °F 93% 29.65 in 6.2 mi NNW 9.2 mph - N/A   Mostly Cloudy
11:20 AM 39.2 °F 33.0 °F 35.6 °F 87% 29.65 in 6.2 mi NNW 9.2 mph - N/A   Mostly Cloudy
11:50 AM 39.2 °F 34.2 °F 37.4 °F 93% 29.68 in 6.2 mi NW 6.9 mph - N/A   Mostly Cloudy
12:20 PM 39.2 °F 33.6 °F 35.6 °F 87% 29.68 in 6.2 mi North 8.1 mph - N/A   Mostly Cloudy
12:50 PM 41.0 °F 35.8 °F 35.6 °F 81% 29.71 in 6.2 mi North 8.1 mph - N/A   Mostly Cloudy
1:20 PM 41.0 °F 35.8 °F 35.6 °F 81% 29.71 in 6.2 mi North 8.1 mph - N/A   Mostly Cloudy
1:50 PM 41.0 °F 36.4 °F 35.6 °F 81% 29.71 in 6.2 mi North 6.9 mph - N/A   Mostly Cloudy
2:20 PM 41.0 °F 35.8 °F 35.6 °F 81% 29.74 in 6.2 mi North 8.1 mph - N/A   Mostly Cloudy
2:50 PM 39.2 °F 33.0 °F 35.6 °F 87% 29.74 in 6.2 mi NNW 9.2 mph - N/A   Mostly Cloudy
3:20 PM 39.2 °F 33.6 °F 35.6 °F 87% 29.74 in 6.2 mi NW 8.1 mph - N/A   Mostly Cloudy
3:50 PM 39.2 °F 33.0 °F 35.6 °F 87% 29.77 in 6.2 mi NW 9.2 mph - N/A   Mostly Cloudy
4:20 PM 39.2 °F 33.0 °F 35.6 °F 87% 29.77 in 6.2 mi NW 9.2 mph - N/A   Mostly Cloudy
4:50 PM 39.2 °F 34.2 °F 35.6 °F 87% 29.80 in 6.2 mi North 6.9 mph - N/A   Mostly Cloudy
5:20 PM 39.2 °F 34.2 °F 35.6 °F 87% 29.80 in 6.2 mi North 6.9 mph - N/A   Mostly Cloudy
6:20 PM 37.4 °F 34.9 °F 37.4 °F 100% 29.83 in 6.2 mi East 3.5 mph - N/A   Mostly Cloudy
6:50 PM 37.4 °F - 37.4 °F 100% 29.83 in 6.2 mi Variable 1.2 mph - N/A   Mostly Cloudy
7:20 PM 37.4 °F - 37.4 °F 100% 29.83 in 6.2 mi SSE 2.3 mph - N/A   Mostly Cloudy
7:50 PM 37.4 °F - 37.4 °F 100% 29.83 in 6.2 mi Variable 2.3 mph - N/A   Overcast
8:20 PM 37.4 °F - 37.4 °F 100% 29.83 in 6.2 mi WNW 1.2 mph - N/A   Overcast
9:50 PM 37.4 °F - 37.4 °F 100% 29.86 in 6.2 mi Variable 2.3 mph - N/A   Overcast
10:20 PM 37.4 °F 34.9 °F 37.4 °F 100% 29.86 in 6.2 mi East 3.5 mph - N/A Rain Light Rain
10:50 PM 37.4 °F - 37.4 °F 100% 29.86 in 6.2 mi ENE 2.3 mph - N/A Rain Light Rain
11:50 PM 35.6 °F - 35.6 °F 100% 29.86 in 6.2 mi Variable 2.3 mph - N/A Rain Light Rain